This demonstration page uses our WeatherBlox Daily Observations layout. Learn more.

Left ArrowRight Arrow

Hourly Observations for November 14, 2019

Temp ( °F °C ) Dew Point ( °F °C ) Humidity (%) Winds ( mph kmh ) Pressure ( in mb ) Visibility ( mi km ) Precip ( " mm )
12:53 am 00:53 Clear 37 2.8 19 -7.2 48 48 E 8 13 30.33 1027 10 16 0.00 0.00
1:53 am 01:53 Clear 36 2.2 20 -6.7 52 52 ENE 6 9 30.33 1027 10 16 0.00 0.00
2:53 am 02:53 Clear 34 1.1 21 -6.1 59 59 NE 7 11 30.30 1026 10 16 0.00 0.00
3:37 am 03:37 Mostly Cloudy 35 1.7 20 -6.7 54 54 E 8 13 30.32 1027 10 16 0.00 0.00
3:53 am 03:53 Cloudy 36 2.2 20 -6.7 52 52 ENE 5 7 30.30 1026 10 16 0.00 0.00
4:53 am 04:53 Cloudy 36 2.2 21 -6.1 55 55 NE 5 7 30.30 1026 10 16 0.00 0.00
5:53 am 05:53 Cloudy 37 2.8 21 -6.1 52 52 ENE 5 7 30.31 1027 10 16 0.00 0.00
6:53 am 06:53 Cloudy 37 2.8 21 -6.1 52 52 NNE 8 13 30.34 1027 10 16 0.00 0.00
7:53 am 07:53 Cloudy 37 2.8 20 -6.7 50 50 ENE 9 15 30.34 1027 10 16 0.00 0.00
8:53 am 08:53 Cloudy 38 3.3 21 -6.1 51 51 E 8 13 30.35 1028 10 16 0.00 0.00
9:53 am 09:53 Cloudy 40 4.4 24 -4.4 53 53 E 7 11 30.34 1027 10 16 0.00 0.00
10:53 am 10:53 Cloudy 41 5 25 -3.9 53 53 E 8 13 30.33 1027 10 16 0.00 0.00
11:53 am 11:53 Cloudy 42 5.6 27 -2.8 55 55 VRB 3 6 30.32 1027 10 16 0.00 0.00
12:53 pm 12:53 Cloudy 43 6.1 28 -2.2 56 56 NNE 7 11 30.30 1026 10 16 0.00 0.00
1:53 pm 13:53 Cloudy 43 6.1 29 -1.7 58 58 ENE 5 7 30.28 1025 10 16 0.00 0.00
2:53 pm 14:53 Cloudy with Light Rain 44 6.7 32 0 63 63 NNE 6 9 30.27 1025 10 16 0.00 0.00
3:53 pm 15:53 Cloudy 43 6.1 32 0 65 65 NNE 5 7 30.25 1025 10 16 0.00 0.00
4:53 pm 16:53 Cloudy 43 6.1 31 -0.6 63 63 NNE 6 9 30.26 1025 10 16 0.00 0.00
5:53 pm 17:53 Cloudy 44 6.7 32 0 63 63 N 3 6 30.25 1025 10 16 0.00 0.00
6:53 pm 18:53 Cloudy 44 6.7 32 0 63 63 N 3 6 30.26 1025 10 16 0.00 0.00
7:53 pm 19:53 Cloudy with Light Rain 43 6.1 35 1.7 74 74 N 3 6 30.26 1025 10 16 0.00 0.00
8:53 pm 20:53 Cloudy with Light Rain 42 5.6 38 3.3 85 85 NNE 3 6 30.25 1025 10 16 0.02 0.51
9:53 pm 21:53 Cloudy with Light Rain 42 5.6 39 3.9 89 89 NNE 5 7 30.26 1025 7 11 0.04 1.02
10:53 pm 22:53 Cloudy with Rain 41 5 39 3.9 93 93 N 5 7 30.25 1024 5 8 0.06 1.52
11:33 pm 23:33 Cloudy with Rain 42 5.6 40 4.4 92 92 N 6 9 30.27 1025 4 6 0.05 1.27
11:53 pm 23:53 Cloudy with Light Rain 42 5.6 40 4.4 92 92 N 6 9 30.24 1024 5 8 0.08 2.03

Powered by AerisWeather